AO-07 1 07530U 74089B 22118.55538745 -.00000035 00000-0 68022-4 0 9990 2 07530 101.9016 98.2743 0012454 136.1603 335.7190 12.53654491171214 UO-11 1 14781U 84021B 22118.54310287 .00001302 00000-0 16395-3 0 9993 2 14781 97.6157 108.2618 0009772 120.4080 239.8101 14.83579285 32645 LO-19 1 20442U 90005G 22118.73776449 .00000184 00000-0 83875-4 0 9995 2 20442 98.7897 82.8522 0011012 319.3965 40.6397 14.33046834686049 HUBBLE 1 20580U 90037B 22118.48357440 .00003077 00000-0 17200-3 0 9993 2 20580 28.4691 139.8589 0002535 210.0236 270.8411 15.10349841558657 MET-2/21 1 22782U 93055A 22118.56057093 .00000017 00000-0 18257-5 0 9998 2 22782 82.5515 53.8320 0023325 125.4261 47.5386 13.83850907447109 AO-27 1 22825U 93061C 22118.56209678 .00000122 00000-0 65143-4 0 9993 2 22825 98.8919 148.5329 0008261 189.7073 170.3950 14.30161654491021 IO-26 1 22826U 93061D 22118.52738712 .00000145 00000-0 73609-4 0 9997 2 22826 98.8862 148.3802 0009021 176.9263 183.1976 14.30505746491278 FO-29 1 24278U 96046B 22118.52240347 .00000017 00000-0 51012-4 0 9990 2 24278 98.5214 149.0656 0351167 52.9783 310.2946 13.53113666268851 NOAA-15 1 25338U 98030A 22118.74678630 .00000240 00000-0 11844-3 0 9993 2 25338 98.6489 148.9211 0011565 84.2370 276.0128 14.26115093246184 GO-32 1 25397U 98043D 22118.46211857 .00000091 00000-0 59508-4 0 9999 2 25397 98.8138 68.8097 0000333 202.2809 157.8355 14.23746861236316 ISS 1 25544U 98067A 22118.74464671 .00016801 00000-0 30381-3 0 9997 2 25544 51.6435 221.4548 0006536 44.2504 57.4686 15.49789218337510 NO-44 1 26931U 01043C 22118.53857181 .00000163 00000-0 93787-4 0 9999 2 26931 67.0510 187.2349 0007937 270.6593 89.3599 14.30688818 74263 SO-50 1 27607U 02058C 22118.32187956 .00001597 00000-0 24104-3 0 9998 2 27607 64.5539 95.3003 0075500 304.3123 55.0848 14.76039545 40973 CO-55 1 27844U 03031E 22118.55436004 .00000351 00000-0 17726-3 0 9998 2 27844 98.6804 126.9918 0008741 243.4352 116.5931 14.22423154976771 CO-57 1 27848U 03031J 22118.22041263 .00000319 00000-0 16409-3 0 9996 2 27848 98.6851 127.1923 0008543 260.3026 99.7187 14.21983876976543 RS-22 1 27939U 03042A 22118.82211964 .00001153 00000-0 21316-3 0 9992 2 27939 98.1834 259.5788 0012893 10.9128 349.2366 14.67273019993760 NOAA-18 1 28654U 05018A 22118.77095810 .00000232 00000-0 14877-3 0 9997 2 28654 98.9514 189.2414 0015377 111.3385 248.9430 14.12719589873057 CO-58 1 28895U 05043F 22118.36233608 .00001490 00000-0 29147-3 0 9999 2 28895 98.0983 250.5381 0015467 301.0065 58.9618 14.64237037880081 Falconsat-3 1 30776U 07006E 22118.59101167 .00052321 00000-0 90662-3 0 9999 2 30776 35.4315 226.0758 0000320 348.4348 11.6375 15.49810567841838 CO-65 1 32785U 08021C 22118.44961020 .00003546 00000-0 37851-3 0 9991 2 32785 97.6529 90.9019 0013913 45.3389 314.8960 14.89369683759045 AAUSAT2 1 32788U 08021F 22118.51532910 .00008298 00000-0 72484-3 0 9994 2 32788 97.5318 105.6214 0009001 295.9005 64.1289 14.97006596760967 DO-64 1 32789U 08021G 22118.55587545 .00020226 00000-0 11627-2 0 9999 2 32789 97.3436 146.6934 0012655 132.9115 227.3180 15.12444622764389 CO-66 1 32791U 08021J 22118.49666684 .00005285 00000-0 52120-3 0 9999 2 32791 97.6080 96.4981 0012904 5.7311 354.4054 14.92353414759826 RS-30 1 32953U 08025A 22118.72094686 .00000021 00000-0 80971-4 0 9995 2 32953 82.5064 214.8478 0019177 12.7500 347.4066 12.43109206632158 PRISM 1 33493U 09002B 22118.50057418 .00009263 00000-0 76237-3 0 9995 2 33493 98.2282 102.2383 0012117 335.6179 24.4468 14.99291547721492 NOAA-19 1 33591U 09005A 22118.69570859 .00000172 00000-0 11825-3 0 9998 2 33591 99.1531 151.7751 0013292 331.4613 28.5829 14.12554986681426 SRMSAT 1 37841U 11058D 22118.53258387 .00000426 00000-0 89156-4 0 9998 2 37841 19.9707 196.6691 0011858 154.7377 235.2774 14.10743679544187 HRBE 1 37855U 11061F 22118.73106480 .00019356 00000-0 86580-3 0 9994 2 37855 101.7045 211.6036 0157820 211.2638 147.9118 15.10879704574192 RS-40 1 38735U 12041C 22118.41426812 -.00000004 00000-0 -98194-4 0 9997 2 38735 82.4725 296.7014 0018013 119.0768 241.2118 12.42584918442306 ZACUBE-1 1 39417U 13066B 22118.47962108 .00002598 00000-0 32371-3 0 9994 2 39417 97.6324 92.2534 0057165 207.0242 152.7993 14.82138208455729 Delfi-N3xt 1 39428U 13066N 22118.53210159 .00005001 00000-0 77489-3 0 9996 2 39428 97.8122 55.0550 0119773 77.5796 283.8783 14.68838400451209 GOMX-1 1 39430U 13066Q 22118.77106829 .00001129 00000-0 21027-3 0 9997 2 39430 97.8116 28.8064 0148798 201.0354 158.4688 14.60049179449045 LO-74 1 39440U 13066AA 22118.52414415 .00002921 00000-0 40310-3 0 9991 2 39440 97.7217 78.1990 0077470 294.0558 65.2560 14.76844164452917 AO-73 1 39444U 13066AE 22118.46456254 .00003223 00000-0 39037-3 0 9995 2 39444 97.6206 94.6389 0056377 195.4164 164.5335 14.83172282454113 SPROUT 1 39770U 14029E 22118.84163979 .00008214 00000-0 85106-3 0 9991 2 39770 97.9342 235.5142 0007606 247.4873 112.5575 14.90263949430277 DTUSAT-2 1 40030U 14033W 22118.54302597 .00003597 00000-0 38123-3 0 9991 2 40030 97.9357 51.1258 0010727 211.7508 148.3064 14.89712176426219 EO-80 1 40032U 14033Y 22118.37988829 .00003533 00000-0 37482-3 0 9999 2 40032 97.9360 50.9748 0010587 213.3508 146.7044 14.89682335426165 HODOYOSHI-1 1 40299U 14070B 22118.85972887 .00006443 00000-0 25006-3 0 9997 2 40299 97.2467 188.4573 0011110 318.8955 152.3864 15.26375884415491 FIREBIRD FU3 1 40377U 15003B 22118.55945865 .00025498 00000-0 79815-3 0 9992 2 40377 99.1079 332.4088 0104723 193.5582 166.2835 15.27831612400793 FIREBIRD FU4 1 40378U 15003C 22118.52257462 .00025438 00000-0 79428-3 0 9993 2 40378 99.1084 332.5629 0104673 193.3318 166.5147 15.27913621400791 GRIFEX 1 40379U 15003D 22118.76830274 .00018003 00000-0 65553-3 0 9992 2 40379 99.1170 319.3025 0118077 233.3508 125.6822 15.21885606400072 XW-2A 1 40903U 15049E 22118.83757260 .00024785 00000-0 42321-3 0 9998 2 40903 97.1864 177.3617 0008573 306.9150 182.0538 15.51265441371565 XW-2C 1 40906U 15049H 22118.85421398 .00007058 00000-0 34473-3 0 9996 2 40906 97.4942 122.6844 0014436 163.8844 280.9595 15.18478761365397 XW-2D 1 40907U 15049J 22118.83878565 .00007900 00000-0 37936-3 0 9990 2 40907 97.4932 122.6103 0013900 159.0418 326.3049 15.19038193365430 LILACSAT-2 1 40908U 15049K 22118.79240763 .00003899 00000-0 20916-3 0 9992 2 40908 97.5167 119.8812 0015133 181.9280 351.5937 15.15452819364962 XW-2E 1 40909U 15049L 22118.87121796 .00012342 00000-0 53433-3 0 9999 2 40909 97.4670 127.0687 0013744 140.9532 337.5952 15.22475113365864 XW-2F 1 40910U 15049M 22118.79214214 .00012115 00000-0 53240-3 0 9994 2 40910 97.4750 126.1127 0014981 142.9327 31.6885 15.21954210365622 XW-2B 1 40911U 15049N 22118.78114529 .00007962 00000-0 38349-3 0 9999 2 40911 97.4916 123.1701 0013852 160.7132 251.7560 15.18933591365316 DCBB 1 40912U 15049P 22118.81963226 .00014258 00000-0 57376-3 0 9997 2 40912 97.4399 130.4955 0015362 113.6634 11.8102 15.24888106366187 TW-1A 1 40928U 15051D 22118.90105619 .00044268 00000-0 64236-3 0 9998 2 40928 97.0457 142.1160 0008054 189.9429 291.3310 15.55668567370521 IO-86 1 40931U 15052B 22118.67797086 .00001224 00000-0 81173-4 0 9997 2 40931 5.9972 164.1496 0012453 186.8143 173.1910 14.76782985355976 ATHENOXAT-1 1 41168U 15077C 22118.28901156 .00018135 00000-0 79054-3 0 9992 2 41168 14.9857 101.8922 0010552 254.8577 143.6626 15.19542972352665 ChubuSat-2 1 41338U 16012B 22118.33427179 .00003508 00000-0 26035-3 0 9994 2 41338 31.0039 342.9710 0013501 14.5249 345.5773 15.01161412339942 ChubuSat-3 1 41339U 16012C 22118.86188831 .00002736 00000-0 20112-3 0 9994 2 41339 31.0125 336.5686 0013501 27.6211 332.5181 15.01259271340025 Horyu-4 1 41340U 16012D 22118.23674745 .00006122 00000-0 43790-3 0 9991 2 41340 31.0050 319.7497 0013397 59.6928 300.5032 15.02949008340160 e-st@r-II 1 41459U 16025D 22118.88823549 .00017886 00000-0 78540-3 0 9995 2 41459 98.1819 280.4234 0149151 77.9627 283.8277 15.12439733330004 AAUSAT4 1 41460U 16025E 22118.46217053 .00024528 00000-0 97435-3 0 9993 2 41460 98.1768 285.7358 0130543 56.8670 304.5048 15.17700729330359 LO-87 1 41557U 16033B 22118.81188472 .00016608 00000-0 51671-3 0 9992 2 41557 97.3852 216.4821 0011663 187.8520 287.7734 15.33316275329772 NuSat2 1 41558U 16033C 22118.77874718 .00015836 00000-0 46262-3 0 9995 2 41558 97.4031 221.8744 0011269 177.0479 334.3444 15.35326346330022 Lapan A3 1 41603U 16040E 22118.89008278 .00001919 00000-0 90632-4 0 9995 2 41603 97.2126 158.0677 0012686 342.9704 141.8822 15.20513643324509 Pratham 1 41783U 16059A 22118.37447338 .00000676 00000-0 13909-3 0 9991 2 41783 97.9188 161.9222 0032707 334.4222 25.5361 14.63304789298308 TY-1 1 41844U 16066D 22118.84988604 .00016563 00000-0 58640-3 0 9998 2 41844 97.3928 131.1178 0015831 103.5521 19.4357 15.29088368304026 CAS-2T 1 41847U 16066G 22118.75076927 .00001046 00000-0 16696-3 0 9992 2 41847 98.5547 183.4625 0364038 358.7291 1.2936 14.38516257287204 EO-88 1 42017U 17008BX 22118.13451666 .00028237 00000-0 88928-3 0 9996 2 42017 97.2731 185.0297 0006375 78.2986 281.8971 15.32862952289365 CAS-4B 1 42759U 17034B 22118.83220946 .00005824 00000-0 35042-3 0 9996 2 42759 43.0174 246.1343 0009440 330.4602 164.6337 15.11496499268843 CAS-4A 1 42761U 17034D 22118.80989816 .00006047 00000-0 36243-3 0 9996 2 42761 43.0182 245.0796 0009774 332.7647 189.4072 15.11587187268845 NIUSat 1 42766U 17036B 22118.55701779 .00014046 00000-0 55689-3 0 9998 2 42766 97.2076 158.1789 0015464 139.3107 220.9290 15.25380445269199 Aalto 1 1 42775U 17036L 22118.37708564 .00012226 00000-0 49331-3 0 9992 2 42775 97.2035 158.0052 0014155 138.6430 221.5883 15.24843543269145 URSA MAIOR 1 42776U 17036M 22118.30933069 .00013380 00000-0 53200-3 0 9998 2 42776 97.2049 158.6207 0013955 137.8532 222.3782 15.25315915269167 Max Valier Sat 1 42778U 17036P 22118.37507712 .00014160 00000-0 55086-3 0 9990 2 42778 97.2114 161.2128 0012755 138.1512 222.0705 15.26047866269264 Pegasus 1 42784U 17036V 22118.35501775 .00018677 00000-0 69057-3 0 9998 2 42784 97.2050 161.9349 0012017 139.8015 220.4116 15.27682685269363 NUDATSat 1 42787U 17036Y 22118.55028756 .00023413 00000-0 76730-3 0 9996 2 42787 97.2087 165.8733 0011070 128.8774 231.3464 15.31582283269459 SUCHAI 1 1 42788U 17036Z 22118.33904008 .00023511 00000-0 83013-3 0 9997 2 42788 97.2058 163.4235 0011481 135.9508 224.2650 15.29157882269525 SKCUBE 1 42789U 17036AA 22118.37894668 .00021195 00000-0 76259-3 0 9992 2 42789 97.2056 162.9818 0011530 136.4728 223.7424 15.28560906269426 VZLUSAT 1 1 42790U 17036AB 22118.09672237 .00032945 00000-0 10809-2 0 9992 2 42790 97.2085 165.4084 0010535 131.7310 228.4835 15.31482146269535 VENTA 1 1 42791U 17036AC 22118.39494770 .00018513 00000-0 67548-3 0 9998 2 42791 97.2058 162.9230 0011191 136.6680 223.5442 15.28131768269418 Robusta 1B 1 42792U 17036AD 22118.35014036 .00021598 00000-0 76659-3 0 9998 2 42792 97.2050 163.4812 0011010 136.3937 223.8176 15.29008137269461 D-SAT 1 42794U 17036AF 22118.53378903 .00002297 00000-0 19953-3 0 9995 2 42794 97.4524 126.5866 0122086 252.0833 106.7045 14.92394200264037 TechnoSat 1 42829U 17042E 22118.58210425 .00001764 00000-0 18018-3 0 9999 2 42829 97.4276 335.6183 0014220 167.9573 192.1989 14.91717335260657 QIKCOM-1 1 42983U 98067NF 22118.27365725 .00128134 00000-0 50870-3 0 9999 2 42983 51.6316 86.0889 0005216 85.2065 274.9535 15.85789262256943 AO-91 1 43017U 17073E 22118.51808596 .00009100 00000-0 68693-3 0 9994 2 43017 97.6811 14.7450 0249864 351.7378 7.9754 14.81008510239720 PICSAT 1 43132U 18004X 22118.15847810 .00024811 00000-0 85665-3 0 9993 2 43132 97.3743 194.8591 0008706 168.8899 191.2535 15.29906533238715 AO-92 1 43137U 18004AC 22118.15765676 .00017611 00000-0 64026-3 0 9995 2 43137 97.3711 193.8002 0008536 171.0229 189.1165 15.28290288238666 TianYi 2 1 43155U 18008A 22118.77331534 .00009076 00000-0 49369-3 0 9998 2 43155 97.3575 178.7812 0015163 321.5342 178.3311 15.14584279235758 Zhou Enlai 1 43156U 18008B 22118.77972755 .00009606 00000-0 52675-3 0 9998 2 43156 97.3620 178.6504 0012471 322.9887 171.1800 15.14313291235685 TianYi 6 1 43158U 18008D 22118.72815057 .00007493 00000-0 42239-3 0 9993 2 43158 97.3574 176.6762 0012149 324.7197 154.5165 15.13407375235589 S-Net D 1 43186U 18014G 22118.52468951 .00002808 00000-0 24437-3 0 9991 2 43186 97.6614 25.2182 0011885 103.7306 256.5240 14.97689732231444 S-Net B 1 43187U 18014H 22118.52477049 .00002828 00000-0 24604-3 0 9998 2 43187 97.6610 25.1722 0011883 103.6053 256.6494 14.97688411231441 S-Net A 1 43188U 18014J 22118.45821371 .00002782 00000-0 24213-3 0 9997 2 43188 97.6615 25.1673 0011875 103.9472 256.3071 14.97687295231437 S-Net C 1 43189U 18014K 22118.52566374 .00002836 00000-0 24678-3 0 9990 2 43189 97.6609 25.1625 0011881 103.7108 256.5438 14.97685507229990 FMN 1 1 43192U 18015A 22118.76006975 .00034879 00000-0 10081-2 0 9991 2 43192 97.5272 262.6492 0012543 204.5481 262.8896 15.35482108235810 Shaonian Xing 1 43199U 18015H 22118.78906791 .00022049 00000-0 70238-3 0 9992 2 43199 97.5048 258.3043 0013849 213.6800 285.6812 15.32477756235831 SurfSat 1 43614U 18070B 22118.52175836 .00051468 00000-0 87371-3 0 9998 2 43614 93.0289 77.6056 0010132 191.6027 168.5002 15.51251474203311 CP-7 DAVE 1 43615U 18070C 22118.62681579 .00047965 00000-0 83867-3 0 9999 2 43615 93.0286 77.5356 0010244 193.3603 166.7388 15.50427661203302 ELFIN-B 1 43616U 18070D 22118.64861850 .00088395 00000-0 11041-2 0 9990 2 43616 93.0195 78.4423 0010332 175.6255 184.5103 15.59500592203577 ELFIN-A 1 43617U 18070E 22118.51808803 .00093202 00000-0 11026-2 0 9992 2 43617 93.0269 79.6278 0010157 168.6290 191.5208 15.60915713203590 CubeBel-1 1 43666U 18083E 22118.85371588 .00011798 00000-0 51459-3 0 9997 2 43666 97.4257 148.1237 0014973 141.4084 343.5259 15.22213677193935 Changshagaoxin 1 43669U 18083H 22118.78316295 .00010996 00000-0 50185-3 0 9990 2 43669 97.4201 144.1834 0011378 137.4742 340.0944 15.20721543193755 Ten-Koh 1 43677U 18084G 22118.34924631 .00002323 00000-0 24060-3 0 9999 2 43677 97.9555 247.9733 0017124 78.1795 282.1342 14.90944294190217 PO-101 1 43678U 18084H 22118.89242164 .00001220 00000-0 12581-3 0 9994 2 43678 97.9616 251.6035 0011332 88.7572 271.4926 14.92068682190464 IRVINE 01 1 43693U 18088D 22118.10703897 .00049803 00000-0 14939-2 0 9991 2 43693 85.0319 344.8949 0010944 303.3597 56.6603 15.34206418192497 QO-100 1 43700U 18090A 22118.29007628 .00000134 00000-0 00000-0 0 9998 2 43700 0.0121 222.0036 0002344 208.2080 276.2305 1.00271228 12526 Reaktor Hello World 1 43743U 18096AA 22118.47610174 .00020612 00000-0 65449-3 0 9991 2 43743 97.3539 198.6001 0014747 233.7292 126.2588 15.32578311190306 MinXSS-2 1 43758U 18099A 22118.19092214 .00005491 00000-0 48050-3 0 9995 2 43758 97.6267 187.3240 0016396 77.0438 283.2614 14.97021070185589 AO-95 1 43770U 18099N 22118.43575037 .00004035 00000-0 36254-3 0 9991 2 43770 97.6236 186.0853 0015487 84.8735 275.4253 14.96146592185534 RANGE-B 1 43772U 18099Q 22118.44991550 .00005771 00000-0 50925-3 0 9995 2 43772 97.6342 187.6600 0014762 72.8037 287.4800 14.96693984185553 RANGE-A 1 43773U 18099R 22118.47922708 .00003154 00000-0 28690-3 0 9995 2 43773 97.6173 185.0862 0014958 73.4589 286.8274 14.95825463185527 MOVE-II 1 43780U 18099Y 22118.43535315 .00006561 00000-0 57012-3 0 9998 2 43780 97.6274 187.0925 0014186 80.9807 279.3019 14.97248196185571 SNUSat 2 1 43782U 18099AA 22118.42185440 .00003920 00000-0 35079-3 0 9994 2 43782 97.6249 186.5195 0014025 72.1215 288.1535 14.96342255185555 SnugLite 1 43784U 18099AC 22118.46614968 .00005354 00000-0 47466-3 0 9998 2 43784 97.6206 186.2127 0016429 79.2100 281.0971 14.96521192185581 ITASat 1 1 43786U 18099AE 22118.50139662 .00003253 00000-0 29184-3 0 9991 2 43786 97.6265 187.0398 0016169 77.5768 282.7262 14.96334874185589 EAGLET 1 1 43790U 18099AJ 22118.47005273 .00003806 00000-0 33877-3 0 9990 2 43790 97.6257 187.5310 0014864 82.0330 278.2577 14.96555793185315 ESEO 1 43792U 18099AL 22118.45392724 .00001607 00000-0 14774-3 0 9992 2 43792 97.6211 186.8031 0014568 79.0718 281.2142 14.96078841185356 CSIM 1 43793U 18099AM 22118.49823924 .00006822 00000-0 58249-3 0 9997 2 43793 97.6287 187.9883 0013903 73.9771 286.2981 14.97922980185406 Astrocast 0.1 1 43798U 18099AS 22118.75057683 .00007402 00000-0 64337-3 0 9992 2 43798 97.6280 188.1964 0013582 61.8807 298.3786 14.97203388185676 JO-97 1 43803U 18099AX 22118.46783224 .00005694 00000-0 50138-3 0 9999 2 43803 97.6229 186.7506 0016440 78.4148 281.8918 14.96763255185598 Suomi 100 1 43804U 18099AY 22118.48268841 .00004729 00000-0 41806-3 0 9995 2 43804 97.6233 186.6970 0016618 77.8055 282.5027 14.96690773185600 Al Farabi 2 1 43805U 18099AZ 22118.48722200 .00005252 00000-0 45814-3 0 9995 2 43805 97.6262 187.1318 0016531 77.7913 282.5165 14.97161666185621 CHOMPTT 1 43855U 18104G 22118.38150154 .00017376 00000-0 65835-3 0 9994 2 43855 85.0330 84.5066 0018644 68.3460 291.9768 15.26613085187088 ISAT 1 43879U 18111D 22118.49434578 .00005942 00000-0 51160-3 0 9997 2 43879 97.6703 25.0107 0014572 122.2113 238.0524 14.97646905182197 UWE-4 1 43880U 18111E 22118.43644081 .00005188 00000-0 44539-3 0 9999 2 43880 97.6734 25.6233 0013608 122.1891 238.0653 14.97830390182219 Sparrow 1 43881U 18111F 22118.72546487 .00005039 00000-0 43158-3 0 9994 2 43881 97.6726 26.1162 0013007 121.5021 238.7474 14.97941779180264 Lume 1 1 43908U 18111AJ 22118.67056748 .00014835 00000-0 52135-3 0 9993 2 43908 97.1987 8.0622 0017020 249.0986 110.8433 15.29329972185781 FO-98 1 43933U 19003B 22117.97130238 .03035337 93434-2 83325-2 0 9993 2 43933 97.1237 156.7127 0011894 243.8671 116.1383 15.96230711182432 FO-99 1 43937U 19003F 22118.66238223 .00018737 00000-0 65513-3 0 9994 2 43937 97.1359 153.9806 0019802 336.3692 23.6638 15.29396032182364 MYSat 1 1 44045U 18092F 22118.51653255 .00055549 00000-0 96310-3 0 9993 2 44045 51.6336 321.0852 0009022 265.9293 94.0664 15.50292667180116 AstroCast 0.2 1 44083U 19018F 22118.73149368 .00009993 00000-0 39382-3 0 9991 2 44083 97.3273 178.5791 0010082 308.1493 51.8836 15.25738266170902 AISTechSat 3 1 44103U 19018AB 22118.42690729 .00012032 00000-0 46133-3 0 9992 2 44103 97.3135 178.6846 0010910 317.1481 42.8907 15.26595847171010 AISat 1 1 44104U 19018AC 22118.49666389 .00010854 00000-0 31231-3 0 9998 2 44104 97.3961 201.4690 0051823 313.0576 46.6333 15.34596179171932 Prox-1 1 44339U 19036A 22118.46310957 .00005279 00000-0 11611-2 0 9996 2 44339 23.9994 148.9908 0011140 32.2277 327.8894 14.54706510151067 Oculus-ASR 1 44348U 19036K 22118.54961046 .00065302 -48815-5 68110-3 0 9998 2 44348 28.5021 175.0993 0262300 113.7808 249.0522 15.30560768156870 Armadillo 1 44352U 19036P 22118.30477486 .00162014 -16215-6 11356-2 0 9994 2 44352 28.5237 115.1305 0179838 208.3792 150.6915 15.54018848157408 NO-104 1 44354U 19036R 22118.44960773 .00075401 -46462-5 75526-3 0 9996 2 44354 28.5246 163.2843 0253411 129.8701 232.4474 15.33152799156980 NO-103 1 44355U 19036S 22110.24609159 .09797144 -77191-5 93620-3 0 9997 2 44355 28.5075 82.7172 0016307 255.7935 104.0877 16.36779689157079 Move-IIb 1 44398U 19038N 22118.58979025 .00016295 00000-0 81493-3 0 9999 2 44398 97.6224 87.5451 0020506 305.8625 54.0709 15.17329616155470 SONATE 1 44400U 19038Q 22118.57057195 .00007419 00000-0 40847-3 0 9993 2 44400 97.6335 86.8854 0022420 308.8167 51.1062 15.14119061155385 BeeSat 9 1 44412U 19038AC 22118.43420719 .00015157 00000-0 78889-3 0 9992 2 44412 97.6312 87.4001 0018856 311.7916 48.1705 15.15972468155117 JAISAT-1 1 44419U 19038F 22118.43561348 .00015043 00000-0 77282-3 0 9993 2 44419 97.6320 88.2000 0017796 309.2147 50.7505 15.16449475155475 LightSail-2 1 44420U 19036AC 22118.36640500 .00093879 00000-0 14085-1 0 9996 2 44420 24.0028 99.1224 0017439 120.5592 239.6627 14.72913260149674 Taurus 1 1 44530U 19059C 22118.84056118 .00002501 00000-0 70207-3 0 9994 2 44530 98.5428 216.8908 0012052 266.3577 93.6249 14.46823184138673 Duchifat 3 1 44854U 19089C 22118.81889047 .00005339 00000-0 41952-3 0 9995 2 44854 36.9667 34.5148 0007144 188.5611 212.7699 15.00683084130471 OPS-SAT 1 44878U 19092F 22118.74388011 .00015175 00000-0 72311-3 0 9994 2 44878 97.4800 303.1533 0013637 149.5045 210.6985 15.19130063130641 TO-108 1 44881U 19093C 22118.80793550 .00000763 00000-0 10348-3 0 9993 2 44881 97.8932 198.7287 0014882 353.6652 6.4370 14.81658871127425 FloripaSat 1 1 44885U 19093G 22118.82166647 .00002488 00000-0 31280-3 0 9994 2 44885 97.8968 199.8963 0014271 0.1924 359.9303 14.82925505127490 RS-44 1 44909U 19096E 22118.46776929 .00000002 00000-0 -42163-4 0 9998 2 44909 82.5190 263.4806 0218306 76.7223 285.8124 12.79713158109115 Phoenix 1 45258U 98067RB 22118.43294964 .00222976 00000-0 98867-3 0 9998 2 45258 51.6317 175.9473 0009935 4.2991 355.8095 15.83148228124493 BY70-2 1 45857U 20042B 22118.85094098 .00008252 00000-0 11213-2 0 9991 2 45857 97.9552 196.1909 0008962 273.9139 86.1092 14.79040340 98120 UPMSat 2 1 46276U 20061E 22118.47249918 .00007313 00000-0 36544-3 0 9991 2 46276 97.3945 190.4436 0001699 46.9641 313.1735 15.17747422 91290 AmicalSat 1 46287U 20061R 22118.72635585 .00008822 00000-0 51552-3 0 9992 2 46287 97.4499 189.6652 0004225 94.7295 265.4418 15.12114688 90957 SALSAT 1 46495U 20068K 22118.47748880 .00003269 00000-0 23877-3 0 9994 2 46495 97.7260 59.7839 0018583 87.1094 273.2258 15.04240088 86674 BY70-3 1 46839U 20079N 22118.77327600 .00027263 00000-0 68999-3 0 9998 2 46839 97.2014 191.5905 0007762 146.1745 2.3632 15.39695324 82592 SPOC 1 46921U 98067RR 22118.55642239 .00189169 00000-0 10398-2 0 9999 2 46921 51.6312 188.9186 0006493 353.0012 7.0897 15.78618275 84080 Neutron-1 1 46923U 98067RT 22118.28073293 .00191122 00000-0 10632-2 0 9992 2 46923 51.6318 190.8407 0006466 348.7387 11.3468 15.78346020 84068 CAPE 3 1 47309U 21002A 22118.56361480 .00014416 00000-0 60323-3 0 9998 2 47309 60.6838 192.0826 0015643 272.3052 87.6244 15.23746401 70847 AO-109 1 47311U 21002C 22118.56956952 .00012421 00000-0 51237-3 0 9993 2 47311 60.6861 189.9092 0011382 266.0687 93.9100 15.24393320 70857 MiTEE 1 1 47314U 21002F 22118.50423512 .00025086 00000-0 90823-3 0 9996 2 47314 60.6838 184.8936 0010475 246.3773 113.6217 15.28312118 70954 ExoCube 2 1 47319U 21002L 22118.55425850 .00013117 00000-0 54701-3 0 9990 2 47319 60.6842 190.9104 0012511 271.2592 88.7062 15.23970644 70801 UVSQ-SAT 1 47438U 21006AB 22118.42617105 .00010870 00000-0 58358-3 0 9993 2 47438 97.4422 178.4747 0013761 90.7370 269.5439 15.15022206 69702 YUSAT 1 1 47439U 21006AC 22118.40876658 .00012617 00000-0 67084-3 0 9999 2 47439 97.4427 178.5199 0013525 91.2742 269.0040 15.15329849 69703 SOMP 2b 1 47445U 21006AJ 22118.67897761 .00008583 00000-0 46507-3 0 9997 2 47445 97.4391 178.4287 0013475 93.5916 266.6858 15.14763240 69738 IDEASSat 1 47458U 21006AX 22118.72162233 .00009911 00000-0 53914-3 0 9992 2 47458 97.4479 178.9202 0012482 92.3409 267.9252 15.14594146 69731 RSP-01 1 47925U 98067SB 22118.08451014 .00267901 00000-0 14191-2 0 9997 2 47925 51.6338 200.7869 0007586 350.6017 9.4841 15.79202546 63854 TAUSAT-1 1 47926U 98067SC 22116.30795815 .00812068 31754-3 15448-2 0 9990 2 47926 51.6166 201.5324 0013254 352.4430 7.6378 15.99918071 63671 Tsuru 1 47927U 98067SD 22118.49280073 .00182105 00000-0 12140-2 0 9993 2 47927 51.6350 201.2667 0006151 351.9604 8.1295 15.74264718 63881 Maya-2 1 47929U 98067SF 22118.42889033 .00174120 00000-0 11716-2 0 9995 2 47929 51.6347 201.5892 0005995 352.9023 7.1890 15.74076118 63833 GuaraniSat-1 1 47931U 98067SH 22118.47926039 .00167162 00000-0 11135-2 0 9994 2 47931 51.6346 201.1946 0006147 351.9195 8.1704 15.74331081 63883 CubeSX-Sirius-HSE 1 47951U 21022V 22118.77516429 .00005353 00000-0 35987-3 0 9999 2 47951 97.5349 19.3407 0020423 320.9645 123.5033 15.07007879 60512 CubeSX-HSE 1 47952U 21022W 22118.76518586 .00005204 00000-0 34948-3 0 9996 2 47952 97.5337 19.3468 0020533 320.7156 128.5454 15.07057763 60513 KSU-Cubesat 1 47954U 21022Y 22118.72011960 .00008217 00000-0 54643-3 0 9999 2 47954 97.5367 19.3835 0019547 319.7424 40.2355 15.07262836 60233 GRBAlpha 1 47959U 21022AD 22118.82143289 .00005330 00000-0 35772-3 0 9990 2 47959 97.5346 19.4336 0020336 321.0265 79.5871 15.07077243 59343 Orbicraft-Zorkiy 1 47960U 21022AE 22118.80687701 .00006674 00000-0 44532-3 0 9998 2 47960 97.5368 19.5316 0020053 319.6804 115.3562 15.07203269 60039 STECCO 1 47962U 21022AG 22118.75565868 .00008868 00000-0 56459-3 0 9991 2 47962 97.5323 20.0310 0014891 316.7972 131.5036 15.08912364 59375 DO-111 1 47963U 21022AH 22118.53610671 .00026883 00000-0 15695-2 0 9994 2 47963 97.5374 20.5243 0015625 310.4246 49.5620 15.11793268 59408 MO-110 1 47964U 21022AJ 22118.66317384 .00012399 00000-0 77902-3 0 9991 2 47964 97.5356 20.1590 0017327 311.3828 48.5910 15.09273184 59371 FEES 1 48082U 21022AL 22118.54108478 .00017227 00000-0 10747-2 0 9990 2 48082 97.5365 19.9166 0013474 309.2254 50.7778 15.09506652 59057 RamSat 1 48850U 98067SL 22118.53766079 .00077671 00000-0 81970-3 0 9998 2 48850 51.6387 211.3207 0004201 295.1172 64.9386 15.63518917 49507 TUBIN 1 48900U 21059X 22118.80812846 .00005281 00000-0 29868-3 0 9991 2 48900 97.5451 248.5439 0008725 275.6405 241.6361 15.13466405 46402 IT-SPINS 1 49017U 21013G 22118.48919332 .00014506 00000-0 57534-3 0 9994 2 49017 51.5989 278.6458 0008359 258.0131 101.9910 15.25567004 46157 LEDSAT 1 49069U 21073D 22118.76599264 .00007178 00000-0 46292-3 0 9992 2 49069 97.5262 192.6476 0028810 104.6942 255.7483 15.08248761 38345 CUTE 1 49263U 21088D 22118.46039731 .00007569 00000-0 56989-3 0 9997 2 49263 97.5936 187.3846 0019694 228.9988 130.9535 15.02639605 31914 Binar-1 1 49272U 98067SR 22118.53501100 .00089308 00000-0 97302-3 0 9995 2 49272 51.6378 215.0316 0001772 32.4661 327.6442 15.62651439 31849 Maya-3 1 49273U 98067SS 22118.51183857 .00132773 00000-0 12158-2 0 9999 2 49273 51.6369 213.3758 0003461 2.4626 357.6386 15.66844815 31864 Maya-4 1 49274U 98067ST 22118.52347418 .00129522 00000-0 11979-2 0 9994 2 49274 51.6365 213.4503 0003436 4.0526 356.0497 15.66610526 31865 CUAVA-1 1 49275U 98067SU 22118.77448179 .00106608 00000-0 10608-2 0 9996 2 49275 51.6387 212.6837 0002024 358.5914 90.2560 15.64877992 31847 TeikyoSat 4 1 49396U 21102B 22118.41208792 .00001267 00000-0 10476-3 0 9991 2 49396 97.5335 178.0579 0019233 74.8922 285.4428 15.00508488 25540 Z-Sat 1 49399U 21102E 22118.74847643 .00002623 00000-0 20140-3 0 9990 2 49399 97.5431 178.8921 0025213 44.3203 316.0035 15.02379840 25622 KOSEN 1 1 49402U 21102H 22118.71144495 .00004209 00000-0 31253-3 0 9996 2 49402 97.5344 178.9394 0022765 32.6880 327.5749 15.03362196 25632 HO-113 1 50466U 21131B 22118.71677872 .00000353 00000-0 13031-3 0 9990 2 50466 98.5814 195.9922 0003279 302.8966 57.1905 14.38473707 17762 Tevel 1 50999U 22002R 22118.83451358 .00009422 00000-0 52067-3 0 9999 2 50999 97.4839 186.7229 0010437 223.6862 228.6961 15.14068540 15917 Grizu-263a 1 51025U 22002AT 22118.44293951 .00022964 00000-0 12189-2 0 9996 2 51025 97.5017 186.6810 0012562 230.4232 129.5891 15.15271387 15861 NO-116 1 51031U 22002AZ 22118.65266145 .00016286 00000-0 87844-3 0 9992 2 51031 97.4974 186.7989 0012574 230.7437 129.2680 15.14773408 15896 IRIS-A 1 51044U 22002BN 22118.47759983 .00007657 00000-0 43739-3 0 9990 2 51044 97.4855 186.2672 0008320 230.5255 129.5241 15.12960520 15855 DELFI-PQ 1 51074U 22002CU 22118.42843676 .00017251 00000-0 89326-3 0 9994 2 51074 97.5092 186.9644 0012785 265.0113 94.9660 15.16206512 15874 SO-115 1 51080U 22002DA 22118.70813273 .00012186 00000-0 64170-3 0 9994 2 51080 97.5118 187.2232 0012374 264.3267 95.6554 15.15698251 15912 SO-114 1 51081U 22002DB 22118.44466364 .00012952 00000-0 68174-3 0 9990 2 51081 97.5103 186.9496 0012625 265.1691 94.8099 15.15693562 15874 GASPACS 1 51439U 98067TB 22118.45929189 .00419032 00000-0 27088-2 0 9999 2 51439 51.6335 216.7549 0014292 351.9933 8.0836 15.74186384 14379 /EX